Regional Weather Roundup
Issued by NWS

Current Version | Previous Version | Text Only | Print | Product List | Glossary On
Versions: 1 2 3 4 5 6 7 8 9 10 11 12 13 14 15 16 17 18 19 20 21 22 23 24 25 26 27 28 29 30 31 32 33 34 35 36 37 38 39 40 41 42 43 44 45 46 47 48 49 50
000
ASUS44 KOUN 252210
RWROK

WEATHER ROUNDUP FOR OKLAHOMA
NATIONAL WEATHER SERVICE NORMAN OK
400 PM CST SUN FEB 25 2018

NOTE: "FAIR" INDICATES FEW OR NO CLOUDS BELOW 12,000 FEET WITH NO
      SIGNIFICANT WEATHER AND/OR OBSTRUCTIONS TO VISIBILITY.

OKZ001>007-009>012-014-015-017-252300-
NORTHWEST OKLAHOMA AND THE PANHANDLE

CITY           SKY/WX    TMP DP  RH WIND       PRES   REMARKS
GAGE           MOSUNNY   55  19  24 NW15      29.97R
GUYMON         SUNNY     52   7  16 N9        29.98R
ENID/WOODRING  SUNNY     63  32  31 S10       29.94F
$$

OKZ016-021>023-033>039-044-045-252300-
SOUTHWEST OKLAHOMA

CITY           SKY/WX    TMP DP  RH WIND       PRES   REMARKS
LAWTON/REGL    SUNNY     65  33  30 S9        29.95F
LAWTON/FT SILL SUNNY     65  39  38 SW10      29.93F
FREDERICK      SUNNY     65  33  30 S10       29.90F
CLINTON        SUNNY     63  22  20 S16       29.91F
HOBART         SUNNY     64  30  27 S17       29.93F
ALTUS AFB      SUNNY    N/A N/A N/A S12       29.92F
$$

OKZ018>020-024>031-252300-
CENTRAL OKLAHOMA

CITY           SKY/WX    TMP DP  RH WIND       PRES   REMARKS
OKLAHOMA CITY  SUNNY     62  31  31 S9        29.94F
OKC/WILEY POST SUNNY     62  30  29 SW13      29.94F
OKC/TINKER AFB SUNNY     62  34  35 SW10      29.94F
STILLWATER     SUNNY     62  29  28 S10       29.95F
GUTHRIE        SUNNY     62  33  33 SW10      29.94F
$$

OKZ008-013-054>072-252300-
NORTHEAST OKLAHOMA

CITY           SKY/WX    TMP DP  RH WIND       PRES   REMARKS
TULSA          MOSUNNY   60  35  39 SE12      29.98F
TULSA/JONES    SUNNY     61  35  37 S8G17     29.98F
PONCA CITY     SUNNY     59  31  34 VRB7      29.97F
BARTLESVILLE   SUNNY     57  33  40 SE5       30.02F
MUSKOGEE       SUNNY     61  36  39 SE8       30.00F
$$

OKZ032-040>043-046>053-073>077-252300-
SOUTH CENTRAL/SOUTHEAST OKLAHOMA

CITY           SKY/WX    TMP DP  RH WIND       PRES   REMARKS
ARDMORE/DWNTWN SUNNY     64  32  29 S8        29.95F
MCALESTER      SUNNY     63  32  31 S9G17     29.98F
$$





USA.gov is the U.S. government's official web portal to all federal, state and local government web resources and services.